Tracking 28915 objects as of 30-May-2024
HD Live streaming from Space Station
objects crossing your sky now

OBJECT AD

Track OBJECT AD now!
10-day predictions
OBJECT AD is classified as:


NORAD ID: 57193
Int'l Code: 2023-091AD
Perigee: 535.5 km
Apogee: 560.1 km
Inclination: 97.6 °
Period: 95.5 minutes
Semi major axis: 6918 km
RCS: Unknown
Launch date: June 27, 2023
Source: (TBD)
Launch site: VOSTOCHNY COSMODROME (VOSTO)

Uplink (MHz):
Downlink (MHz): 401.230
Beacon (MHz):
Mode: 2k4 GMSK_USP
Call sign: SC2210
Status: Active

Your satellite tracking list
Your tracking list is empty




NASA's NSSDC Master Catalog

Two Line Element Set (TLE):
1 57193U 23091AD  24151.20373805  .00007279  00000-0  46853-3 0  9995
2 57193  97.6132 203.6258 0017738 178.6176 181.5105 15.08540080 50796
Source of the keplerian elements: AFSPC